Location: *
(40.4270°N, 9.4940°E)
Time: 15:59:48
(UTC+02:00)

Daily predictions for brighter satellites

Satellite Brightness Start Highest point End
(mag) Time Altitude Azimuth Time Altitude Azimuth Time Altitude Azimuth
ATLAS CENTAUR R/B 3.8 19:27:09 10° S 19:31:30 40° ESE 19:43:11 10° NE
Resurs 01 Rocket 2.5 19:35:14 10° SE 19:39:04 29° ENE 19:42:54 10° N
Cosmos 2346 Rocket 4.5 19:34:01 10° N 19:40:04 63° E 19:46:02 10° SSE
Okean 3 Rocket 3.9 19:37:29 10° N 19:41:54 49° E 19:46:18 10° SSE
Cosmos 1844 Rocket 4.3 19:39:13 10° NW 19:44:24 40° WSW 19:49:34 10° S
CZ-4C R/B 2.4 19:41:14 10° SW 19:46:30 75° NW 19:52:28 10° NNE
Cosmos 2237 Rocket 2.6 19:46:03 10° SSW 19:51:43 71° WNW 19:57:24 10° NNE
SAR-Lupe-4 3.6 19:50:15 10° SSE 19:53:48 85° WSW 19:57:24 10° NNW
Cosmos 1484 Rocket 3.8 19:53:03 10° S 19:56:45 50° W 20:00:32 10° NNW
ALOS 3.3 19:53:17 10° ESE 19:57:06 26° ENE 20:00:57 10° NNE
NOAA 12 4.1 19:52:26 10° SSE 19:57:40 76° ENE 20:02:57 10° N
ATLAS CENTAUR R/B 1.2 19:54:01 10° NNW 19:58:16 79° ENE 20:02:09 10° SE
Spot 2 Rocket 3.7 19:53:31 10° SE 19:58:21 50° ENE 20:03:14 10° N
Cosmos 2056 Rocket 3.6 19:54:40 10° NNW 20:00:06 71° ENE 20:05:30 10° SSE
Cosmos 2034 Rocket 4.4 19:57:54 10° SSE 20:03:39 41° E 20:09:29 10° NNE
CZ-4B DEB 4.2 20:02:54 15° ESE 20:04:37 21° ENE 20:07:11 10° NNE
ATLAS 5 CENTAUR R/B 2.5 20:00:30 10° S 20:04:41 32° ESE 20:09:08 10° NE
Cosmos 1464 Rocket 4.0 20:00:51 10° S 20:06:58 59° E 20:13:04 10° NNE
Cosmos 1371 Rocket 4.4 20:04:19 10° NNW 20:09:35 71° WSW 20:14:53 10° S
SL-16 R/B 2.1 20:04:25 10° SSW 20:10:04 73° ESE 20:15:46 10° NNE
OAO 3 Rocket 4.0 20:07:19 10° SW 20:11:42 37° SSE 20:14:48 18° ESE
ASTEX 1 4.2 20:10:05 10° NNE 20:14:17 27° E 20:18:25 10° SSE
USA 215 3.3 20:09:15 10° NE 20:15:50 89° NW 20:22:23 10° SW
Cosmos 1766 3.2 20:12:14 10° S 20:16:11 89° E 20:20:11 10° N
ASTRO E2 4.4 20:14:01 10° SW 20:17:06 21° S 20:19:01 15° SE
BREEZE-M DEB (TANK) 3.6 20:17:40 10° W 20:19:48 28° SSW 20:24:04 10° SSE
Helios 1A 2.9 20:16:13 10° SSE 20:20:23 72° ENE 20:24:34 10° N
Cosmos 1437 4.2 20:19:27 10° NNW 20:22:33 41° W 20:25:39 10° SSW
Meteor 1-22 Rocket 4.5 20:22:30 10° SSW 20:27:51 67° W 20:33:08 10° N
FREGAT/IRIS 4.1 20:25:05 10° S 20:28:01 40° W 20:30:58 10° NNW
Cosmos 1953 2.3 20:27:30 10° S 20:31:25 58° E 20:35:21 10° NNE
CZ-2D R/B 3.6 20:30:35 26° SE 20:32:20 42° ENE 20:36:03 10° N
BREEZE-M DEB (TANK) 4.5 20:16:17 10° W 20:32:44 59° N 20:36:22 19° ENE
Timation 1 Rocket 4.3 20:29:56 10° NNW 20:35:56 86° ENE 20:41:40 11° SSE
Cosmos 2278 Rocket 4.0 20:31:02 10° NW 20:35:59 32° WSW 20:40:54 10° SSW
Cosmos 1766 Rocket 3.4 20:34:03 10° N 20:38:28 85° E 20:42:48 10° S
Cosmos 2297 4.1 20:33:59 10° NNW 20:39:35 63° WSW 20:45:07 10° S
Aureole 2 Rocket 4.1 20:40:02 10° SW 20:44:15 47° WNW 20:48:27 10° N
FENGYUN 3A 3.5 20:40:03 10° SSE 20:45:23 76° ENE 20:50:47 10° N
NOSS 3-2 (A) 3.8 20:43:51 10° SW 20:49:53 69° NW 20:56:31 10° NNE
Cosmos 1805 3.3 20:46:10 10° S 20:50:05 82° W 20:54:03 10° N
H-2A R/B 2.6 20:51:08 38° SSE 20:52:33 76° ENE 20:56:27 10° N
ERS-1 Rocket 3.9 20:54:36 30° ENE 20:54:36 30° ENE 20:58:44 10° N
Cosmos 2369 Rocket 3.2 20:51:15 10° N 20:56:02 27° NE 20:56:23 27° ENE
Cosmos 1452 Rocket 3.5 20:51:39 10° NNW 20:56:56 85° WSW 21:00:17 23° SSE
Cosmos 1603 3.6 20:51:25 10° S 20:57:04 67° ESE 21:02:48 10° NNE
SeaSat 1 2.3 20:58:23 10° NNE 21:03:21 73° ESE 21:08:16 10° SSW
Cosmos-2242 3.4 21:00:41 10° SSW 21:04:59 63° W 21:09:21 10° N
Cosmos 1943 Rocket 4.0 21:04:54 10° N 21:07:47 16° NE 21:07:47 16° NE
Cosmos 1544 3.3 21:06:32 19° SSW 21:09:07 70° W 21:12:52 10° N
Cosmos 1842 Rocket 3.9 21:11:06 49° NE 21:11:06 49° NE 21:14:27 10° NNE
Cosmos 468 4.5 21:07:01 10° SSW 21:12:17 83° WNW 21:17:33 10° NNE
Cosmos 1500 Rocket 3.5 21:08:57 10° N 21:13:05 68° NE 21:13:05 68° NE
Resurs 01 Rocket 3.8 21:11:48 10° SSW 21:15:30 25° W 21:19:12 10° NW
Atlas Centaur 2 4.1 21:11:23 10° WSW 21:18:13 28° SSW 21:21:01 23° S
Nadezhda 4 Rocket 4.1 21:13:27 10° N 21:19:44 75° W 21:24:52 16° S
Cosmos 1420 Rocket 3.9 21:15:57 10° NNW 21:21:16 87° ENE 21:22:06 65° SSE
Cosmos 1092 Rocket 3.8 21:18:15 10° N 21:24:31 87° E 21:26:53 41° S
Cosmos 2142 Rocket 4.4 21:24:39 49° SSE 21:26:16 67° E 21:32:36 10° NNE
NOSS 3-2 (C) 4.3 21:20:57 10° WSW 21:26:51 50° NW 21:33:21 10° NNE
CENTAUR R/B 3.9 21:24:55 10° SSW 21:39:13 - NE 21:26:38 20° S
Cosmos 1269 Rocket 4.2 21:27:19 10° SSW 21:32:35 71° WNW 21:37:53 10° NNE
ALOS 3.9 21:30:24 11° SSW 21:34:25 31° W 21:38:35 10° NNW
Cosmos 1634 Rocket 3.8 21:35:38 44° S 21:37:49 86° E 21:44:05 10° N
Cosmos 1048 Rocket 4.1 21:34:43 10° SSW 21:40:01 72° WNW 21:45:18 10° NNE
Cosmos 2026 Rocket 4.0 21:35:31 10° N 21:40:54 62° NE 21:40:54 62° NE
GP-B 4.1 21:43:25 10° N 21:46:45 44° NW 21:46:45 44° NW
Envisat 3.6 21:49:24 49° N 21:49:24 49° N 21:53:05 10° NNW
ATLAS 5 CENTAUR R/B 3.4 21:44:52 10° WSW 21:49:15 34° NW 21:54:01 10° NNE
Cosmos 839 Rocket 4.1 21:52:00 10° NNW 21:59:29 77° NNE 21:59:29 77° NNE
Exosat Rocket 4.4 22:02:03 10° NNW 22:08:45 85° ENE 22:08:58 83° ESE
Cosmos 2369 Rocket 3.7 22:34:53 10° NW 22:38:11 32° WNW 22:38:11 32° WNW
Cosmos 1943 Rocket 4.1 22:47:11 10° NNW 22:49:19 24° NNW 22:49:19 24° NNW
